Miscellaneous Local Product
Issued by NWS Hastings, NE

Home | Current Version | Previous Version | Text Only | Print | Product List | Glossary Off
Versions: 1 2 3 4 5 6 7 8 9 10 11 12 13 14 15 16 17 18 19 20 21 22 23 24 25 26 27 28 29 30 31 32 33 34 35 36 37 38 39 40 41 42 43 44 45 46 47 48 49 50

690
AXUS43 KGID 241702
MISGRI

GID CWA HOURLY WEATHER ROUNDUP
NATIONAL WEATHER SERVICE HASTINGS NE
1200 PM CDT MON JUL 24 2017

NOTE: "FAIR" INDICATES FEW OR NO CLOUDS BELOW 12,000 FEET WITH NO
SIGNIFICANT WEATHER AND/OR OBSTRUCTIONS TO VISIBILITY.

...SOUTH CENTRAL NEBRASKA...

CITY           SKY/WX    TMP DP  RH WIND       PRES   REMARKS
GRAND ISLAND   FAIR      83  68  60 SE13      30.01F
HASTINGS       FAIR      82  66  58 S12       30.02F
KEARNEY        FAIR      84  69  60 S10       30.01F
ORD            SUNNY     84  64  50 SE13      29.97F
YORK           FAIR      81  68  65 S8        30.02F
AURORA         FAIR      81  67  63 S9        30.01F
LEXINGTON      SUNNY     84  70  62 S7        29.99F
HOLDREGE       FAIR      82  67  61 SE8       30.00F
HEBRON         FAIR      85  66  52 SE12      30.01F

...NEBRASKA PANHANDLE...

CITY           SKY/WX    TMP DP  RH WIND       PRES   REMARKS
CHADRON        SUNNY     94  51  23 S14       29.86F HX  91
ALLIANCE       SUNNY     93  57  29 SW15G23   29.96F HX  91
SCOTTSBLUFF    MOSUNNY   91  54  28 VRB6      29.95F
SIDNEY         SUNNY     90  58  33 SW20G26   30.03F

...WESTERN AND NORTH CENTRAL NEBRASKA...

CITY           SKY/WX    TMP DP  RH WIND       PRES   REMARKS
VALENTINE      SUNNY     94  57  28 S15G24    29.89F HX  92
AINSWORTH      SUNNY     89  63  42 S16G25    29.92F
ONEILL         SUNNY     82  65  56 S18       29.97F
BROKEN BOW     SUNNY     87  66  49 S10G20    29.98F
IMPERIAL       SUNNY     92  58  31 S15       29.99F HX  91
NORTH PLATTE   SUNNY     92  62  36 SW13G20   29.97F HX  92
MCCOOK         SUNNY     93  62  35 S13G18    29.98F HX  93

...EASTERN NEBRASKA...

CITY           SKY/WX    TMP DP  RH WIND       PRES   REMARKS
NORFOLK        FAIR      80  61  52 S13       30.00F
SO SIOUX CITY  FAIR      78  63  59 SE8       30.01F
TEKAMAH        FAIR      78  63  59 VRB7      30.02S
COLUMBUS       FAIR      79  65  62 S8        30.02F
ALBION         FAIR      82  66  58 S12       30.01S
OMAHA EPPLEY   FAIR      80  62  54 S8        30.02F
OFFUTT AFB     FAIR      80  62  54 E6        30.02F
MILLARD        FAIR      81  65  57 SE7       30.02F
LINCOLN        FAIR      82  65  56 SE6       30.02F
NEBRASKA CITY  FAIR      78  67  69 SE3       30.03S
BEATRICE       FAIR      83  64  53 SE6       30.02S
FALLS CITY     FAIR      81  65  58 E6        30.02S

...NORTHERN KANSAS...

CITY           SKY/WX    TMP DP  RH WIND       PRES   REMARKS
GOODLAND       SUNNY     86  64  47 S18       30.04F
HILL CITY      FAIR      90  66  45 S10       30.00F HX  92
NORTON         SUNNY     88  61  40 SE13      30.00F
PHILLIPSBURG   SUNNY     88  66  48 E5        30.00F HX  90
SMITH CENTER     N/A     86  70  58 SE6       30.00F HX  90
HAYS             N/A     91  63  39 SE7       30.00F HX  92
RUSSELL        FAIR      90  64  42 W6        29.99F HX  91
CONCORDIA      FAIR      85  72  65 SE8       30.00F HX  91
SALINA         FAIR      92  69  47 SE7       29.99F HX  97
TOPEKA         FAIR      84  71  65 NE9       30.00F



USA.gov is the U.S. government's official web portal to all federal, state and local government web resources and services.